Weather in Vtroya

Russia / Saint-Petersburg and Leningrad Oblast     59°00′32″N   27°47′21″E
temp.,
°C
wind,
m/s
gust,
m/s
humid.,
%
clouds,
%
prec.,
mm/h
press.,
hPa
HPBL,
m
2 march, tue
tue200:00+1wnw5118984 0.0 1016317
03:00+2w5128792 0.0 1016360
06:00+2wnw51188100 0.1 1013408
09:00+1wnw5129193 0.8 1015485
12:00+3nw6127911 0.0 1016602
15:00+3nw612766 0.0 1019594
18:00+2nw513770 0.0 1020533
21:000nw411830 0.0 1022330
3 march, wed
wed300:000wnw511870 0.0 1022317
03:00−1wnw510890 0.0 1022289
06:00−2wnw410921 0.0 1020313
09:00−1w4118715 0.0 1020415
12:00+2w5107531 0.0 1017539
15:00+3wsw5107755 0.0 1015603
18:00+3w5128290 0.0 1011402
21:00+2w6138895 0.0 1009505
4 march, thu
thu400:00+1w51191100 0.0 1006455
03:00+1nw3897100 0.2 1005368
06:00−1n3789100 0.2 1004405
09:00−3nnw368782 0.2 1004336
12:00−2nnw577762 0.0 1004879
15:00−2nnw687981 0.1 10061010
18:00−3nnw596589 0.1 1006869
21:00−4nnw486979 0.2 1007620
5 march, fri
fri500:00−4nnw367056 0.1 1008646
03:00−5nw267429 0.1 1009396
06:00−6nw36760 0.0 1009438
09:00−6nnw367833 0.0 1011493
12:00−5nw3672100 0.0 1012946
15:00−4nnw4673100 0.1 1014912
18:00−5nnw4777100 0.1 1015556
21:00−6nnw478594 0.2 1017520
6 march, sat
sat600:00−7n367372 0.1 1019470
03:00−9nnw237636 0.1 1019121
06:00−9wsw23760 0.0 101871
09:00−8sw48780 0.0 1017242
12:00−5sw6107531 0.0 1014499
15:00−3ssw8149165 0.3 1009775
18:00−2sw101792100 1.4 1003979
21:00−1w81495100 2.7 999707